Total_Precipitation_Accumulation
1.48 1.82 2.13 2.52 2.80 3.11 3.54 4.02 4.47 4.36 4.01 3.56 3.11 2.81 2.44 2.18 1.93 1.62 1.40 1.28 1.23 1.26 1.42 1.27 1.36 1.42 1.36 1.28 1.30 1.38 1.41 1.24 1.49 1.57 1.11 0.81 0.72 0.66 0.57 0.57 0.56 0.51 0.59
1.35 1.63 2.07 2.39 2.65 2.97 3.23 3.42 3.29 2.89 2.64 2.49 2.29 1.96 1.88 1.82 1.75 1.63 1.41 1.18 1.15 1.12 1.07 1.06 1.07 1.12 1.16 1.06 1.03 1.16 1.14 0.97 1.24 1.34 1.18 0.79 0.61 0.52 0.44 0.47 0.46 0.50 0.64
1.14 1.39 1.82 2.05 2.12 2.34 2.45 2.35 2.06 1.65 1.49 1.46 1.32 1.40 1.58 1.69 1.69 1.69 1.58 1.38 1.28 1.23 1.18 1.08 1.00 0.96 0.99 0.99 0.97 1.05 1.06 0.94 0.98 1.11 1.27 0.99 0.66 0.52 0.38 0.39 0.46 0.59 0.70
0.82 1.08 1.35 1.41 1.49 1.57 1.48 1.41 1.27 1.07 0.94 0.91 0.91 0.93 1.09 1.35 1.51 1.66 1.69 1.68 1.56 1.40 1.28 1.15 0.98 0.84 0.81 0.86 0.79 0.86 0.98 0.99 0.89 0.89 0.96 0.99 1.01 0.91 0.55 0.34 0.37 0.56 0.66
0.77 0.92 0.93 0.90 0.95 0.98 0.94 0.89 0.89 0.82 0.80 0.81 0.89 0.87 0.76 0.77 0.74 0.81 0.95 1.09 1.19 1.14 0.98 0.92 0.86 0.77 0.70 0.70 0.74 0.85 0.94 0.96 0.88 0.88 0.87 0.92 1.06 1.07 0.93 0.60 0.52 0.57 0.56
0.56 0.65 0.65 0.64 0.64 0.66 0.68 0.76 0.81 0.82 0.79 0.81 0.81 0.79 0.73 0.73 0.69 0.69 0.72 0.69 0.72 0.73 0.69 0.67 0.70 0.69 0.67 0.68 0.68 0.74 0.84 0.92 0.96 0.97 1.01 1.06 1.07 1.13 1.22 0.99 0.82 0.75 0.66
0.39 0.36 0.36 0.37 0.38 0.38 0.40 0.53 0.60 0.62 0.59 0.59 0.62 0.62 0.68 0.69 0.63 0.56 0.52 0.50 0.48 0.51 0.55 0.58 0.63 0.63 0.68 0.74 0.80 0.81 0.82 0.89 1.00 1.03 1.11 1.19 1.18 1.24 1.34 1.28 1.09 0.99 0.96
0.22 0.18 0.18 0.18 0.22 0.25 0.25 0.30 0.43 0.44 0.44 0.42 0.48 0.59 0.74 0.78 0.73 0.72 0.59 0.54 0.52 0.50 0.53 0.61 0.67 0.66 0.67 0.68 0.78 0.83 0.90 0.97 1.01 1.00 1.16 1.25 1.19 1.31 1.44 1.47 1.43 1.30 1.29
0.11 0.10 0.11 0.12 0.13 0.15 0.16 0.17 0.25 0.35 0.41 0.38 0.41 0.44 0.47 0.54 0.55 0.56 0.56 0.53 0.59 0.54 0.59 0.67 0.76 0.77 0.77 0.79 0.83 0.85 0.95 1.13 1.20 1.18 1.23 1.29 1.27 1.31 1.44 1.56 1.60 1.58 1.52
0.07 0.07 0.05 0.06 0.08 0.11 0.15 0.20 0.19 0.28 0.48 0.55 0.53 0.41 0.32 0.30 0.37 0.46 0.52 0.55 0.59 0.60 0.64 0.69 0.72 0.76 0.77 0.79 0.84 0.90 1.00 1.16 1.24 1.32 1.40 1.40 1.34 1.38 1.45 1.50 1.62 1.73 1.74
0.04 0.03 0.03 0.04 0.07 0.10 0.15 0.28 0.34 0.41 0.56 0.70 0.73 0.60 0.42 0.34 0.36 0.38 0.38 0.41 0.49 0.59 0.67 0.64 0.57 0.54 0.58 0.71 0.86 0.92 1.01 1.10 1.14 1.21 1.23 1.22 1.26 1.31 1.26 1.34 1.47 1.63 1.77
0.02 0.02 0.02 0.02 0.04 0.07 0.17 0.41 0.67 0.94 1.02 1.10 1.16 1.00 0.62 0.40 0.33 0.27 0.26 0.34 0.46 0.56 0.62 0.59 0.53 0.51 0.57 0.70 0.85 1.00 1.20 1.33 1.30 1.22 1.15 1.07 1.14 1.23 1.24 1.33 1.36 1.42 1.64
0.02 0.02 0.01 0.02 0.02 0.04 0.10 0.24 0.33 0.59 0.82 0.99 1.09 0.88 0.49 0.30 0.23 0.21 0.25 0.39 0.51 0.56 0.57 0.57 0.62 0.72 0.80 0.92 1.04 1.10 1.24 1.29 1.20 1.16 1.09 1.02 1.02 1.07 1.17 1.28 1.32 1.32 1.39
0.02 0.02 0.02 0.02 0.03 0.04 0.05 0.15 0.21 0.24 0.34 0.59 0.74 0.61 0.37 0.26 0.23 0.23 0.27 0.32 0.36 0.42 0.52 0.64 0.81 0.92 0.98 1.01 1.08 1.07 1.05 1.05 0.96 0.90 0.86 0.90 1.01 1.07 1.07 1.06 1.10 1.15 1.25
0.04 0.04 0.04 0.04 0.04 0.05 0.06 0.12 0.18 0.21 0.29 0.51 0.65 0.54 0.37 0.29 0.23 0.20 0.21 0.26 0.35 0.40 0.53 0.68 0.78 0.77 0.79 0.84 0.91 0.93 0.90 0.86 0.80 0.72 0.59 0.59 0.75 0.90 0.93 0.87 0.91 0.96 1.05
0.06 0.06 0.06 0.06 0.07 0.08 0.08 0.08 0.12 0.17 0.27 0.45 0.63 0.61 0.46 0.33 0.24 0.22 0.25 0.36 0.42 0.48 0.57 0.63 0.63 0.60 0.46 0.41 0.43 0.50 0.58 0.64 0.64 0.57 0.52 0.52 0.53 0.56 0.58 0.62 0.67 0.74 0.83
0.12 0.09 0.07 0.07 0.08 0.10 0.12 0.13 0.13 0.15 0.28 0.44 0.57 0.62 0.55 0.45 0.38 0.31 0.34 0.42 0.48 0.54 0.61 0.60 0.60 0.60 0.57 0.39 0.28 0.27 0.36 0.44 0.46 0.47 0.51 0.42 0.37 0.41 0.42 0.42 0.40 0.42 0.48
0.12 0.14 0.10 0.09 0.09 0.09 0.13 0.16 0.19 0.22 0.31 0.45 0.59 0.64 0.62 0.60 0.60 0.53 0.51 0.54 0.58 0.62 0.66 0.63 0.65 0.69 0.65 0.49 0.36 0.28 0.26 0.34 0.38 0.42 0.46 0.47 0.48 0.49 0.50 0.48 0.46 0.40 0.38
0.11 0.13 0.14 0.12 0.13 0.14 0.16 0.19 0.23 0.30 0.39 0.49 0.64 0.72 0.75 0.78 0.76 0.74 0.74 0.78 0.82 0.77 0.74 0.76 0.79 0.82 0.82 0.64 0.42 0.31 0.33 0.43 0.45 0.47 0.49 0.50 0.51 0.50 0.38 0.41 0.44 0.44 0.46
0.12 0.12 0.12 0.13 0.15 0.17 0.19 0.28 0.37 0.49 0.62 0.70 0.79 0.93 1.07 1.16 1.16 1.11 1.04 1.00 1.05 0.97 0.91 0.86 0.86 0.87 0.92 0.82 0.50 0.35 0.44 0.61 0.65 0.68 0.64 0.51 0.44 0.39 0.29 0.35 0.47 0.45 0.45
0.12 0.13 0.12 0.13 0.16 0.17 0.25 0.38 0.52 0.68 0.76 0.85 0.92 1.09 1.33 1.42 1.32 1.27 1.20 1.13 1.14 1.16 1.14 1.03 1.00 1.02 1.05 0.97 0.61 0.48 0.59 0.75 0.84 0.83 0.78 0.70 0.50 0.35 0.30 0.31 0.40 0.42 0.46
0.14 0.14 0.15 0.14 0.18 0.24 0.37 0.55 0.68 0.73 0.81 0.96 1.12 1.29 1.47 1.39 1.23 1.37 1.34 1.32 1.38 1.36 1.30 1.24 1.15 1.12 1.12 0.99 0.71 0.48 0.56 0.74 0.93 0.99 0.94 0.84 0.60 0.42 0.35 0.33 0.33 0.30 0.32
0.15 0.18 0.21 0.26 0.27 0.37 0.56 0.76 0.82 0.88 0.92 0.98 1.12 1.26 1.35 1.44 1.48 1.47 1.43 1.44 1.45 1.43 1.32 1.27 1.21 1.16 1.20 1.17 0.77 0.55 0.60 0.70 0.85 1.05 1.04 0.85 0.66 0.55 0.44 0.40 0.41 0.37 0.36
0.15 0.18 0.24 0.33 0.43 0.54 0.68 0.79 0.82 0.83 0.83 0.84 0.88 1.00 1.19 1.31 1.42 1.61 1.64 1.59 1.50 1.47 1.42 1.32 1.25 1.21 1.26 1.29 1.02 0.74 0.71 0.77 0.84 0.97 1.03 0.91 0.76 0.67 0.58 0.52 0.50 0.48 0.48
0.18 0.24 0.31 0.40 0.48 0.61 0.72 0.74 0.77 0.85 0.91 0.90 0.90 0.94 1.04 1.23 1.34 1.48 1.56 1.54 1.53 1.35 1.27 1.17 1.11 1.12 1.18 1.17 0.96 0.85 0.87 0.99 1.04 1.03 1.08 1.10 0.99 0.87 0.78 0.74 0.76 0.76 0.71
0.19 0.29 0.40 0.48 0.55 0.66 0.79 0.84 0.91 1.00 1.07 1.06 1.00 1.00 1.06 1.21 1.31 1.38 1.35 1.17 1.10 0.91 0.80 0.77 0.73 0.75 0.80 0.90 0.78 0.68 0.78 0.95 1.03 1.00 1.04 1.13 1.13 1.05 0.97 0.92 0.95 0.95 0.90